Flag for U.S.A. Weather past 2 weeks in Key West, Florida, U.S.A.

Now
79 °F

Passing clouds.


Feels Like: 81 °F
Forecast: 75 / 81 °F
Wind: 12 mph from North

Location: Key West International Airport

Current Time: Oct 25, 2014 at 7:05:39 PM

Latest Report: Oct 25, 2014 at 5:53 PM


Visibility: 10 mi

Pressure: 29.91 "Hg

Humidity: 65%

Dew point: 66 °F

Location of Key WestLocation

Historic Weather in Key West — Graph

°F

Key West temperature yesterday

Maximum temperature yesterday: 82 °F (at 2:53 PM)
Minimum temperature yesterday: 76 °F (at 5:00 AM)
Average temperature yesterday: 79 °F

Past Weeks' High & Low Weather Summary

 TemperatureHumidityPressure
High87 °F (Oct 11, 12:53 PM)100% (Oct 21, 10:53 AM)30.03 "Hg (Oct 21, 10:53 AM)
Low70 °F (Oct 19, 3:53 AM)49% (Oct 19, 2:53 PM)29.80 "Hg (Oct 24, 4:53 PM)
Average80 °F80%29.94 "Hg
* Reported Oct 10 5:53 PM — Oct 25 5:53 PM, Key West, Weather by CustomWeather, © 2014

Note: Actual official high and low records may vary slightly from our data, if they occured in-between our weather recording intervals... More about our weather records

Advertising

Key West weather history for previous 24 hours

 ConditionsComfort  
Time TempWeatherWind HumidityBarometerVisibility
5:53 PM
Oct 25
79 °FPassing clouds.12 mph65%29.91 "Hg10 mi
4:53 PM80 °FSunny.13 mph60%29.90 "Hg10 mi
3:53 PM80 °FSunny.15 mph64%29.91 "Hg10 mi
2:53 PM80 °FSunny.16 mph64%29.91 "Hg10 mi
1:53 PM80 °FSunny.14 mph67%29.93 "Hg10 mi
12:53 PM79 °FSunny.13 mph67%29.94 "Hg10 mi
11:53 AM79 °FSunny.12 mph69%29.95 "Hg10 mi
10:53 AM78 °FPassing clouds.13 mph69%29.95 "Hg10 mi
9:53 AM79 °FOvercast.12 mph69%29.94 "Hg10 mi
8:53 AM76 °FCloudy.12 mph77%29.94 "Hg10 mi
7:53 AM76 °FOvercast.12 mph77%29.93 "Hg10 mi
6:53 AM75 °FClear.13 mph79%29.90 "Hg10 mi
5:53 AM75 °FClear.13 mph82%29.88 "Hg10 mi
4:53 AM76 °FClear.14 mph82%29.87 "Hg10 mi
3:53 AM76 °FClear.14 mph82%29.85 "Hg10 mi
2:53 AM76 °FClear.13 mph85%29.87 "Hg10 mi
1:53 AM76 °FClear.13 mph85%29.88 "Hg10 mi
12:53 AM77 °FClear.15 mph82%29.88 "Hg10 mi
11:53 PM
Oct 24
78 °FClear.13 mph82%29.88 "Hg10 mi
10:53 PM78 °FClear.12 mph82%29.88 "Hg10 mi
9:53 PM79 °FClear.12 mph79%29.86 "Hg10 mi
8:53 PM79 °FClear.10 mph79%29.85 "Hg10 mi
7:53 PM79 °FClear.10 mph82%29.83 "Hg10 mi
Weather by CustomWeather, © 2014

See weather overviewHow to use our weather pages